Temperature
24 22 23 23 22 21 20 20 20 19 18 18 18 18 18 18 17 17 17 17 16 16 16 16 16 16 16 15 15 16 16 15 15 15 15 14 15 15 14 15 15 15 15
23 22 22 23 22 21 21 20 20 19 18 17 18 18 18 18 17 17 17 17 16 16 16 16 15 16 16 15 15 15 16 15 15 16 15 15 15 14 14 14 14 15 15
24 23 22 21 22 21 21 20 19 18 17 17 17 17 17 17 17 17 17 17 17 17 16 16 16 16 16 15 15 15 16 15 15 16 16 17 17 15 14 14 14 15 15
23 22 21 21 21 20 20 19 18 17 17 17 17 17 17 17 17 17 17 16 16 16 16 16 16 15 15 15 15 15 16 16 15 16 16 17 17 17 16 14 15 14 14
22 22 21 21 20 20 19 19 18 17 17 17 17 17 17 17 17 17 16 16 16 16 16 16 16 15 15 15 15 15 16 15 16 15 15 16 16 17 17 16 15 14 14
22 22 21 21 20 20 20 19 18 18 18 17 17 17 17 17 16 16 16 16 16 16 16 16 15 15 15 16 15 15 15 15 16 16 16 16 16 16 17 17 16 16 15
22 22 21 21 20 20 19 19 18 18 17 17 17 17 16 16 16 15 15 15 15 15 15 15 15 15 15 16 16 16 15 15 15 16 16 16 16 17 17 17 17 16 15
22 22 22 21 20 19 19 18 18 17 17 17 17 16 16 16 15 15 15 14 15 15 14 14 14 14 15 15 15 15 15 15 15 15 16 15 16 16 16 16 17 16 16
23 22 21 21 20 19 19 18 18 18 17 17 16 16 16 16 15 15 14 14 14 14 14 13 13 13 14 14 14 14 14 15 15 15 15 15 15 15 15 15 16 16 16
23 22 21 20 20 19 19 19 18 18 17 17 16 16 16 16 15 15 15 15 14 14 13 13 13 13 13 13 13 13 14 14 14 15 15 15 15 15 15 15 15 15 15
23 22 22 21 20 20 20 19 19 18 18 17 17 16 16 16 15 15 15 15 15 14 13 13 13 13 13 13 13 13 13 13 14 14 15 15 15 15 15 15 15 15 15
22 22 21 21 21 21 20 20 19 18 18 18 17 16 16 16 16 15 15 15 15 14 14 13 13 13 13 13 12 12 12 13 13 14 14 15 15 15 15 15 15 15 15
22 22 21 21 21 21 21 20 20 19 18 18 18 17 16 16 16 15 15 15 15 15 14 14 14 13 13 13 13 13 13 13 13 13 13 14 14 15 15 15 15 15 15
22 22 21 21 21 20 20 20 20 19 18 18 18 17 16 16 16 16 15 15 15 14 14 14 14 14 14 13 13 13 13 13 13 13 13 13 14 14 15 15 15 15 15
21 21 21 21 20 20 20 20 19 19 18 18 17 17 16 16 16 15 15 15 14 14 14 14 14 14 14 14 14 14 13 13 13 13 13 13 14 14 15 15 15 15 15
21 21 20 20 20 19 19 19 18 18 18 17 17 17 16 16 16 16 15 15 15 15 14 14 14 14 14 14 14 14 14 14 14 14 14 14 14 15 15 15 15 15 14
20 19 19 19 19 19 18 18 18 18 18 17 17 16 16 16 16 16 16 16 16 15 15 14 14 14 14 15 15 14 14 14 14 14 14 14 14 14 15 15 15 15 15
18 17 17 17 17 17 18 18 18 18 17 17 16 15 15 16 16 16 16 16 16 15 15 15 15 15 14 15 14 14 14 13 14 14 14 14 14 14 14 14 14 14 14
16 16 16 16 17 17 17 18 17 17 16 16 15 15 15 15 16 16 16 16 16 16 16 15 15 15 14 14 14 14 14 13 14 13 13 13 14 14 14 14 14 14 14
15 15 16 16 17 17 17 17 16 15 15 15 14 14 15 15 15 15 15 15 15 15 15 15 15 14 14 14 14 14 13 13 14 13 13 14 14 14 14 14 14 13 14
15 15 15 16 16 15 15 14 14 13 13 13 13 13 13 14 14 14 14 14 14 13 13 13 13 13 13 13 13 13 13 13 13 13 13 14 14 14 13 13 13 13 13
15 14 14 15 14 14 14 13 12 12 12 12 12 12 12 13 13 13 13 12 12 12 12 12 12 12 12 12 12 12 13 12 12 12 13 13 14 13 13 13 12 12 12
14 14 14 14 13 13 13 13 12 12 12 11 11 11 11 12 12 12 11 11 11 11 11 11 11 11 11 12 12 12 12 12 12 12 12 13 13 13 12 12 12 12 12
14 14 13 13 13 13 13 13 12 12 12 11 11 11 11 10 10 10 10 10 10 10 11 11 11 11 11 11 11 12 12 12 12 12 12 12 12 12 11 11 12 12 12
15 14 14 13 13 13 13 13 13 12 12 11 11 11 11 10 11 11 10 10 11 11 11 11 11 11 11 11 11 11 12 12 12 12 11 11 11 11 11 11 11 11 11
15 14 14 13 13 13 13 13 13 12 12 12 11 11 11 11 11 11 11 11 11 11 11 11 11 11 11 11 11 11 11 11 12 11 11 11 11 11 11 11 11 11 11
Wind_Speed
7 6 6 5 5 6 8 8 9 9 8 7 7 7 7 8 9 9 12 14 14 14 11 8 11 11 11 11 11 9 9 8 8 6 6 5 4 5 4 5 6 8 8
10 9 7 5 5 5 6 8 9 10 9 7 7 6 6 6 8 8 10 13 14 14 11 10 8 11 11 13 13 11 9 8 9 7 7 5 5 3 4 4 4 5 6
13 11 8 6 5 5 6 7 9 10 10 9 7 6 5 5 6 8 9 11 13 13 11 9 8 11 13 12 14 15 14 11 11 9 6 5 4 5 5 4 4 4 3
12 11 9 7 6 6 7 7 8 9 10 10 9 10 7 7 8 7 8 10 13 14 12 10 9 12 13 14 14 16 14 13 12 10 7 5 3 5 5 5 5 4 4
13 12 9 7 7 7 7 7 8 9 9 10 9 9 8 6 5 6 7 9 10 12 13 14 12 14 14 15 14 15 15 13 13 11 10 7 5 6 4 6 6 6 6
13 11 9 8 7 7 6 6 7 8 8 9 9 9 8 7 6 7 6 6 6 8 13 15 14 14 13 13 12 12 15 13 14 13 11 9 8 8 6 5 7 7 6
12 11 10 9 8 7 7 7 7 7 8 8 8 8 7 7 7 7 7 7 6 6 9 12 13 13 12 10 8 8 10 13 14 15 12 10 9 7 7 6 5 5 6
11 10 9 8 8 9 9 8 8 7 7 7 7 7 7 5 5 6 6 6 6 6 7 8 10 11 11 10 9 8 8 11 13 15 13 9 9 7 7 7 6 6 6
9 9 8 8 8 10 10 10 9 8 8 7 6 6 5 5 5 6 6 5 6 5 7 7 7 8 10 10 11 8 8 10 12 13 13 10 8 8 8 8 8 8 7
5 7 8 8 9 10 11 11 10 10 9 7 6 4 5 5 4 5 6 6 6 6 7 7 7 8 8 9 10 10 9 8 8 8 10 9 8 8 9 9 9 9 8
4 4 6 9 10 10 11 12 12 11 10 9 7 6 5 5 5 5 6 6 6 7 8 8 8 9 9 9 8 8 10 8 6 5 7 10 10 9 9 9 9 9 9
8 7 7 8 10 12 13 13 13 13 11 10 9 7 6 5 5 5 6 7 7 7 8 8 8 8 9 9 9 9 8 6 3 3 6 9 9 10 9 9 11 10 11
11 9 9 9 10 11 12 13 13 13 12 11 10 9 8 7 6 6 6 7 8 8 8 9 10 10 10 10 10 9 9 7 6 6 8 9 9 10 9 11 11 10 10
13 11 10 9 9 10 12 13 13 12 12 11 10 9 9 8 8 7 7 8 8 8 8 9 9 10 11 11 11 11 11 12 12 11 10 10 12 12 11 10 12 11 11
13 12 10 8 7 9 11 11 11 10 10 10 10 9 9 8 8 8 9 9 9 9 8 7 8 8 8 9 11 12 13 14 14 13 13 12 12 11 10 9 10 10 9
12 10 9 6 4 7 9 9 8 8 8 8 9 8 8 9 10 10 10 10 11 11 10 10 9 9 7 7 8 9 10 11 13 13 13 12 11 13 13 13 12 9 11
9 7 5 3 2 4 7 7 7 6 6 6 7 8 9 10 11 11 11 11 12 12 12 12 11 11 9 9 8 10 9 10 11 12 11 10 9 11 12 14 15 15 16
5 6 7 8 8 9 9 8 7 5 3 4 5 7 8 9 10 10 11 12 11 11 11 11 12 11 9 10 9 9 12 11 11 11 12 11 12 12 12 11 12 13 14
8 9 10 11 12 11 11 10 9 7 5 2 1 2 4 6 8 10 11 10 10 11 11 11 11 11 10 10 9 9 10 10 11 10 10 11 11 9 8 10 11 11 10
9 9 10 12 12 12 11 11 10 9 7 6 6 5 5 3 3 5 7 7 9 10 9 10 11 12 10 10 9 10 8 9 8 7 7 5 4 5 7 8 7 7 6
7 7 9 10 10 9 10 10 10 9 7 7 7 8 8 6 5 2 1 3 5 7 8 9 9 9 8 9 8 9 7 7 6 6 5 5 6 5 5 5 3 1 1
5 6 7 9 8 8 9 10 9 7 7 7 7 8 8 7 6 5 4 4 5 6 6 6 6 6 6 6 8 9 8 6 6 5 5 5 8 6 5 4 3 4 3
4 5 6 7 7 7 7 8 7 6 6 6 7 7 7 7 6 5 6 5 5 4 4 4 4 4 5 5 6 8 8 6 4 3 6 8 9 7 6 5 6 6 4
3 3 3 4 5 5 4 5 4 4 5 6 6 6 6 7 6 5 4 5 4 3 3 1 1 2 3 4 5 6 6 7 5 6 9 9 7 5 5 7 7 5 4
3 3 3 2 2 2 2 3 2 3 4 4 5 5 6 6 5 5 5 4 4 3 3 2 2 2 1 1 2 3 5 7 6 8 7 7 7 6 5 4 4 4 4
5 4 4 4 3 2 3 3 2 2 2 3 4 4 4 4 4 4 4 8 7 7 6 6 5 3 3 4 2 2 3 7 8 5 5 4 4 4 5 5 5 5 5
Wind_Direction
198 187 182 188 202 208 207 196 190 176 170 177 187 188 199 211 219 215 207 205 207 203 202 211 208 199 198 198 198 191 191 182 178 163 152 144 124 102 105 84 83 79 72
194 181 171 161 173 179 183 185 185 179 178 183 192 200 199 211 217 219 212 207 204 199 197 209 225 210 210 211 209 195 192 191 193 189 175 165 156 156 136 128 102 97 90
198 184 175 163 159 166 172 181 185 182 182 180 183 186 187 198 203 214 211 207 200 191 183 194 222 234 220 218 220 208 195 195 202 206 203 200 177 154 169 163 160 127 115
196 183 176 166 160 160 167 175 180 184 185 184 191 197 208 215 215 211 207 208 202 195 186 194 215 237 236 226 222 216 204 199 198 209 229 236 157 175 162 191 191 179 170
191 181 171 156 146 146 156 166 171 176 181 195 206 220 231 231 224 216 212 209 205 203 201 205 211 227 234 231 223 214 207 202 201 201 205 203 187 228 186 170 183 194 199
182 173 158 155 151 150 154 163 170 172 180 195 207 219 222 217 214 211 208 208 211 215 215 213 215 219 222 222 219 214 210 211 208 206 205 203 203 215 209 194 180 186 183
174 171 172 174 171 169 170 171 170 168 177 190 202 211 214 218 222 221 214 209 209 216 219 216 215 213 209 200 187 193 210 216 216 213 211 212 219 214 215 223 198 187 173
180 184 188 188 185 185 186 183 177 171 175 195 202 204 204 217 229 223 217 208 209 210 207 208 208 207 198 185 172 167 202 217 217 216 213 216 225 225 227 234 232 219 197
199 205 206 205 199 196 194 191 185 180 183 196 198 204 209 214 218 219 212 205 207 205 201 197 195 192 186 180 169 167 189 213 215 212 213 212 217 221 231 237 240 242 235
236 229 220 220 215 207 199 193 191 187 187 192 194 202 210 204 211 208 198 198 196 189 178 185 190 191 186 179 170 162 167 191 208 212 215 213 221 222 222 228 235 242 249
340 290 241 224 217 210 203 196 190 189 187 188 190 197 201 203 205 204 194 192 187 180 185 190 197 196 189 179 166 159 156 165 186 206 219 223 223 218 215 220 227 233 240
334 316 283 242 219 211 206 202 196 188 187 185 185 198 198 200 211 204 194 190 189 192 195 193 203 196 181 175 168 162 156 156 185 247 252 238 220 223 222 221 226 229 233
310 305 287 263 236 216 208 204 200 190 182 181 184 195 201 205 213 211 197 196 197 198 200 197 204 206 195 185 181 175 170 175 206 238 258 260 239 226 228 229 233 231 233
296 296 287 269 243 221 208 203 200 192 184 184 189 200 209 209 213 212 206 206 205 203 203 199 204 209 206 200 195 193 192 195 205 217 231 249 256 250 247 239 239 230 228
287 291 292 286 250 218 205 200 198 193 190 194 202 211 218 216 216 211 211 212 211 211 211 207 204 204 206 204 201 201 205 207 210 215 220 229 246 271 277 268 252 228 221
288 298 303 302 262 207 192 184 184 186 194 208 220 220 223 221 221 219 216 215 212 215 216 218 215 208 206 182 203 226 224 226 223 224 226 226 230 243 244 251 259 250 229
311 322 340 15 75 149 155 156 160 165 192 222 232 226 223 222 224 222 218 215 214 214 214 219 219 218 204 173 201 223 238 238 238 236 233 226 229 231 238 231 230 238 242
15 50 68 73 79 90 100 107 117 133 176 230 239 232 225 222 222 220 217 214 211 207 209 212 217 223 208 186 204 210 232 239 237 236 236 229 228 224 229 233 235 238 232
58 69 76 81 79 80 90 95 92 89 83 55 320 273 246 230 218 217 218 212 205 203 202 203 206 211 206 188 201 211 233 238 236 231 228 228 231 207 213 241 247 247 246
57 70 78 79 76 76 80 81 77 70 59 42 30 24 20 357 277 235 222 209 207 210 206 206 206 205 203 180 196 217 233 237 230 221 217 207 237 159 194 233 251 255 241
50 66 78 77 76 79 79 76 67 56 42 32 34 34 32 33 31 34 147 184 196 200 201 202 204 205 200 180 195 216 239 237 224 206 201 189 158 165 191 247 261 280 212
58 71 85 84 80 80 80 75 64 52 42 39 38 35 35 40 50 67 91 121 140 149 161 178 188 198 194 198 191 209 234 263 225 208 192 163 157 171 188 213 124 125 153
77 85 96 94 89 78 70 69 62 44 39 41 38 33 39 48 56 82 103 109 118 130 148 174 191 197 192 180 186 203 210 234 239 154 95 124 153 168 185 181 168 181 185
108 113 129 117 97 79 60 50 47 29 28 36 31 29 33 45 58 74 95 100 96 102 113 125 189 211 204 196 195 193 184 184 180 140 125 130 143 152 128 162 186 199 192
153 165 193 176 125 78 30 12 356 351 12 31 35 38 45 48 55 72 57 46 61 40 20 21 360 347 282 43 291 236 201 192 177 157 159 162 161 160 167 182 187 187 185
172 183 202 220 227 259 310 321 284 283 336 20 34 37 46 62 66 76 83 54 51 54 48 39 18 20 355 323 264 209 117 116 142 168 169 174 185 186 184 190 198 204 209
Height
1489 1490 1492 1493 1495 1497 1499 1500 1502 1503 1504 1507 1509 1512 1514 1516 1518 1520 1521 1523 1526 1529 1532 1535 1538 1540 1542 1543 1545 1547 1551 1552 1554 1555 1556 1556 1556 1556 1556 1557 1557 1556 1555
1487 1488 1489 1491 1493 1494 1496 1497 1498 1499 1500 1503 1505 1508 1511 1513 1514 1515 1516 1518 1521 1524 1527 1530 1534 1536 1538 1540 1542 1544 1547 1550 1552 1554 1554 1555 1557 1555 1556 1556 1557 1557 1557
1484 1486 1488 1490 1491 1492 1494 1496 1496 1497 1498 1500 1502 1505 1507 1509 1511 1511 1512 1514 1516 1518 1521 1524 1528 1532 1534 1536 1539 1540 1543 1546 1550 1552 1553 1553 1553 1555 1556 1556 1557 1556 1557
1480 1484 1487 1489 1490 1491 1492 1494 1494 1496 1497 1499 1500 1502 1504 1506 1508 1508 1509 1511 1513 1514 1516 1518 1521 1525 1529 1532 1534 1536 1538 1542 1545 1548 1550 1552 1552 1553 1555 1556 1556 1556 1556
1477 1482 1485 1488 1490 1491 1492 1493 1493 1494 1496 1498 1499 1500 1501 1503 1504 1505 1505 1507 1508 1510 1511 1513 1515 1519 1523 1526 1529 1531 1534 1537 1541 1544 1546 1548 1550 1551 1552 1553 1555 1555 1555
1475 1480 1483 1485 1487 1489 1490 1492 1492 1493 1494 1495 1496 1497 1498 1499 1500 1501 1502 1503 1504 1505 1506 1508 1511 1513 1516 1520 1524 1526 1530 1533 1537 1541 1543 1545 1547 1549 1550 1551 1552 1553 1554
1474 1478 1481 1484 1486 1488 1490 1491 1492 1492 1493 1494 1494 1495 1496 1497 1498 1498 1498 1499 1500 1500 1501 1503 1505 1507 1510 1514 1517 1520 1524 1528 1532 1537 1540 1542 1544 1546 1548 1549 1550 1551 1552
1474 1478 1481 1483 1485 1487 1488 1489 1490 1491 1491 1492 1494 1494 1494 1494 1495 1495 1496 1496 1496 1497 1498 1499 1501 1503 1505 1507 1511 1514 1518 1523 1528 1532 1535 1538 1541 1542 1544 1546 1547 1548 1549
1475 1477 1480 1482 1484 1485 1486 1487 1488 1489 1489 1491 1491 1492 1492 1492 1493 1493 1493 1493 1494 1494 1495 1497 1498 1499 1501 1502 1504 1508 1513 1518 1523 1526 1530 1533 1536 1537 1539 1542 1544 1545 1545
1474 1476 1477 1479 1481 1483 1484 1485 1486 1487 1487 1488 1489 1489 1490 1491 1491 1491 1491 1492 1492 1493 1494 1495 1496 1497 1497 1498 1498 1501 1506 1512 1517 1522 1525 1528 1531 1533 1535 1537 1539 1540 1541
1473 1474 1475 1476 1477 1479 1480 1481 1482 1484 1485 1485 1487 1488 1489 1489 1490 1490 1490 1491 1491 1492 1493 1494 1495 1496 1496 1497 1496 1497 1500 1507 1512 1517 1521 1525 1527 1529 1531 1532 1534 1535 1537
1472 1472 1472 1472 1472 1474 1476 1477 1479 1481 1482 1482 1484 1486 1487 1487 1488 1489 1489 1490 1490 1491 1492 1493 1493 1494 1495 1496 1497 1498 1499 1503 1509 1514 1518 1522 1524 1525 1527 1528 1529 1530 1532
1469 1469 1469 1468 1468 1469 1471 1473 1476 1477 1478 1479 1481 1483 1484 1485 1486 1488 1488 1489 1490 1491 1491 1492 1492 1493 1495 1496 1497 1499 1501 1504 1508 1511 1514 1518 1521 1522 1523 1524 1525 1526 1527
1465 1465 1464 1463 1463 1463 1465 1469 1472 1474 1475 1477 1478 1480 1482 1483 1484 1485 1486 1487 1488 1489 1491 1492 1492 1493 1494 1495 1497 1499 1502 1504 1507 1509 1512 1514 1517 1520 1521 1521 1521 1521 1522
1461 1460 1460 1458 1457 1458 1460 1464 1469 1471 1473 1475 1476 1478 1480 1480 1481 1482 1483 1484 1485 1487 1488 1490 1491 1492 1493 1495 1496 1498 1501 1503 1505 1508 1510 1512 1513 1515 1516 1516 1516 1516 1516
1457 1457 1455 1454 1453 1454 1457 1462 1466 1469 1471 1473 1474 1475 1476 1477 1478 1479 1480 1481 1482 1483 1485 1487 1489 1490 1491 1492 1494 1496 1498 1500 1502 1503 1504 1506 1508 1509 1510 1510 1511 1511 1512
1454 1453 1452 1451 1452 1454 1457 1461 1464 1466 1468 1470 1471 1471 1472 1472 1474 1475 1476 1477 1478 1479 1481 1482 1485 1487 1488 1489 1491 1492 1494 1496 1497 1498 1499 1500 1501 1503 1504 1505 1505 1506 1507
1452 1452 1452 1452 1453 1455 1457 1459 1462 1464 1465 1466 1467 1467 1467 1468 1469 1470 1471 1473 1474 1476 1477 1479 1481 1483 1485 1486 1488 1489 1490 1492 1492 1493 1494 1495 1497 1498 1499 1500 1500 1501 1502
1455 1454 1454 1455 1456 1457 1458 1460 1461 1462 1463 1463 1463 1463 1463 1464 1464 1465 1466 1468 1469 1471 1473 1475 1476 1478 1481 1482 1484 1485 1487 1488 1488 1488 1489 1490 1492 1493 1494 1495 1496 1497 1498
1459 1459 1459 1459 1458 1459 1460 1461 1462 1462 1462 1461 1461 1460 1460 1459 1459 1459 1461 1462 1464 1466 1468 1469 1471 1472 1475 1477 1480 1481 1483 1484 1485 1484 1485 1485 1487 1488 1489 1491 1492 1492 1493
1463 1463 1462 1461 1461 1462 1463 1463 1462 1462 1461 1460 1459 1458 1457 1456 1455 1455 1456 1457 1459 1461 1462 1464 1466 1468 1471 1473 1475 1477 1479 1480 1481 1481 1480 1481 1482 1484 1485 1487 1488 1488 1489
1466 1466 1466 1465 1465 1466 1466 1465 1463 1462 1461 1460 1459 1458 1457 1455 1454 1454 1454 1455 1457 1459 1461 1462 1464 1465 1467 1469 1471 1473 1475 1477 1478 1478 1478 1477 1479 1480 1482 1483 1484 1485 1486
1469 1469 1469 1469 1468 1468 1468 1467 1466 1464 1463 1461 1460 1459 1457 1455 1454 1454 1455 1457 1458 1460 1462 1463 1464 1465 1466 1467 1468 1470 1471 1473 1474 1474 1474 1475 1476 1477 1479 1480 1481 1483 1484
1470 1470 1472 1472 1472 1471 1469 1469 1467 1466 1465 1464 1462 1461 1459 1458 1456 1456 1457 1459 1461 1462 1463 1464 1464 1464 1464 1465 1466 1467 1468 1470 1471 1472 1472 1473 1473 1475 1477 1478 1479 1480 1481
1470 1471 1473 1474 1474 1472 1471 1470 1468 1467 1467 1466 1464 1463 1462 1460 1458 1458 1459 1460 1462 1463 1463 1463 1463 1463 1463 1463 1464 1464 1466 1468 1469 1470 1471 1472 1473 1474 1475 1476 1477 1477 1478
1470 1471 1472 1474 1474 1473 1472 1470 1469 1468 1468 1467 1466 1465 1464 1463 1462 1462 1462 1462 1463 1463 1463 1463 1462 1461 1461 1460 1461 1462 1464 1465 1467 1468 1470 1471 1472 1473 1474 1474 1475 1475 1475